When you browse on this site, cookies collect data to enhance your experience and personalize the content and advertising you see.
Visit our Privacy Policy to learn more. By continuing to use the site, you agree to this use of cookies and data.
  • Em Portugal
  • Lista de países
  • Para 7 dias
  • Temperatura da água
  • Mapa do tempo
  • Widgets de tempo
  • user-avatar
    Iniciar Sessão

    Previsão horária em Neuquén

    Hoje, 15 Outubro, Terça-feira

    Tempo Temperatura Precipitação Vento Pressão Humidade
    00:00 +3°C° 0.1 mm 6 m/s 744 mmHg 83%
    01:00 +3°C° 0 mm 6 m/s 743 mmHg 85%
    02:00 +3°C° 0.1 mm 6 m/s 743 mmHg 85%
    03:00 +4°C° 0.1 mm 6 m/s 743 mmHg 85%
    04:00 +4°C° 0.1 mm 6 m/s 742 mmHg 84%
    05:00 +4°C° 0 mm 6 m/s 743 mmHg 79%
    06:00 +5°C° 0 mm 6 m/s 743 mmHg 73%
    07:00 +6°C° 0 mm 7 m/s 743 mmHg 68%
    08:00 +6°C° 0 mm 7 m/s 743 mmHg 66%
    09:00 +8°C° 0 mm 7 m/s 742 mmHg 65%
    10:00 +9°C° 0 mm 7 m/s 742 mmHg 64%
    11:00 +9°C° 0 mm 7 m/s 742 mmHg 63%
    12:00 +10°C° 0 mm 7 m/s 741 mmHg 62%
    13:00 +10°C° 0 mm 7 m/s 741 mmHg 60%
    14:00 +10°C° 0 mm 7 m/s 740 mmHg 60%
    15:00 +11°C° 0 mm 7 m/s 740 mmHg 60%
    16:00 +11°C° 0 mm 7 m/s 739 mmHg 60%
    17:00 +10°C° 0 mm 7 m/s 739 mmHg 63%
    18:00 +10°C° 0 mm 7 m/s 740 mmHg 66%
    19:00 +9°C° 0 mm 6 m/s 740 mmHg 69%
    20:00 +9°C° 0 mm 6 m/s 740 mmHg 71%
    21:00 +8°C° 0 mm 6 m/s 740 mmHg 72%
    22:00 +7°C° 0 mm 5 m/s 740 mmHg 73%
    23:00 +7°C° 0 mm 5 m/s 739 mmHg 75%

    Amanhã, 16 Outubro, Quarta-feira

    Tempo Temperatura Precipitação Vento Pressão Humidade
    00:00 +7°C° 0 mm 5 m/s 739 mmHg 77%
    01:00 +6°C° 0 mm 4 m/s 738 mmHg 80%
    02:00 +6°C° 0 mm 4 m/s 738 mmHg 81%
    03:00 +5°C° 0 mm 4 m/s 738 mmHg 83%
    04:00 +5°C° 0 mm 4 m/s 738 mmHg 84%
    05:00 +5°C° 0 mm 5 m/s 738 mmHg 82%
    06:00 +6°C° 0 mm 5 m/s 738 mmHg 79%
    07:00 +7°C° 0 mm 5 m/s 738 mmHg 77%
    08:00 +8°C° 0 mm 5 m/s 738 mmHg 73%
    09:00 +9°C° 0 mm 6 m/s 738 mmHg 70%
    10:00 +10°C° 0 mm 6 m/s 738 mmHg 66%
    11:00 +11°C° 0 mm 6 m/s 737 mmHg 61%
    12:00 +13°C° 0 mm 6 m/s 737 mmHg 57%
    13:00 +15°C° 0 mm 6 m/s 736 mmHg 52%
    14:00 +15°C° 0 mm 5 m/s 736 mmHg 51%
    15:00 +16°C° 0 mm 5 m/s 735 mmHg 50%
    16:00 +16°C° 0 mm 5 m/s 735 mmHg 49%
    17:00 +15°C° 0 mm 4 m/s 735 mmHg 54%
    18:00 +14°C° 0 mm 4 m/s 735 mmHg 58%
    19:00 +14°C° 0 mm 4 m/s 736 mmHg 63%
    20:00 +14°C° 0 mm 4 m/s 736 mmHg 64%
    21:00 +14°C° 0 mm 4 m/s 736 mmHg 66%
    22:00 +13°C° 0 mm 4 m/s 736 mmHg 68%
    23:00 +13°C° 0 mm 4 m/s 736 mmHg 70%

    Depois de amanhã, 17 Outubro, Quinta-feira

    Tempo Temperatura Precipitação Vento Pressão Humidade
    00:00 +13°C° 0 mm 3 m/s 735 mmHg 72%
    01:00 +13°C° 0 mm 3 m/s 735 mmHg 74%
    02:00 +13°C° 0 mm 2 m/s 735 mmHg 77%
    03:00 +13°C° 0 mm 2 m/s 735 mmHg 80%
    04:00 +13°C° 0 mm 2 m/s 735 mmHg 83%
    05:00 +13°C° 0 mm 1 m/s 735 mmHg 79%
    06:00 +14°C° 0 mm 1 m/s 736 mmHg 76%
    07:00 +15°C° 0 mm 1 m/s 736 mmHg 72%
    08:00 +16°C° 0.2 mm 1 m/s 736 mmHg 64%
    09:00 +19°C° 0.2 mm 1 m/s 736 mmHg 55%
    10:00 +19°C° 0.2 mm 2 m/s 736 mmHg 47%
    11:00 +20°C° 0.1 mm 2 m/s 736 mmHg 42%
    12:00 +21°C° 0.1 mm 2 m/s 736 mmHg 37%
    13:00 +23°C° 0.1 mm 2 m/s 735 mmHg 32%
    14:00 +22°C° 0 mm 3 m/s 735 mmHg 29%
    15:00 +22°C° 0 mm 4 m/s 735 mmHg 27%
    16:00 +22°C° 0 mm 5 m/s 735 mmHg 24%
    17:00 +21°C° 0 mm 4 m/s 735 mmHg 25%
    18:00 +19°C° 0 mm 3 m/s 735 mmHg 27%
    19:00 +18°C° 0 mm 2 m/s 736 mmHg 29%
    20:00 +17°C° 0 mm 2 m/s 736 mmHg 29%
    21:00 +17°C° 0 mm 2 m/s 736 mmHg 28%
    22:00 +16°C° 0 mm 2 m/s 736 mmHg 28%
    23:00 +16°C° 0 mm 2 m/s 736 mmHg 28%

    18 Outubro, Sexta-feira

    Tempo Temperatura Precipitação Vento Pressão Humidade
    00:00 +15°C° 0 mm 2 m/s 736 mmHg 28%
    01:00 +13°C° 0 mm 3 m/s 736 mmHg 28%
    02:00 +14°C° 0 mm 2 m/s 736 mmHg 32%
    03:00 +13°C° 0 mm 2 m/s 737 mmHg 35%
    04:00 +12°C° 0 mm 2 m/s 737 mmHg 38%
    05:00 +14°C° 0 mm 2 m/s 737 mmHg 36%
    06:00 +16°C° 0 mm 2 m/s 737 mmHg 34%
    07:00 +17°C° 0 mm 2 m/s 738 mmHg 32%
    08:00 +19°C° 0 mm 2 m/s 738 mmHg 29%
    09:00 +21°C° 0 mm 2 m/s 738 mmHg 25%
    10:00 +23°C° 0 mm 2 m/s 738 mmHg 22%
    11:00 +24°C° 0 mm 2 m/s 738 mmHg 20%
    12:00 +25°C° 0 mm 2 m/s 738 mmHg 19%
    13:00 +26°C° 0 mm 2 m/s 738 mmHg 17%
    14:00 +26°C° 0 mm 2 m/s 738 mmHg 17%
    15:00 +26°C° 0 mm 2 m/s 737 mmHg 17%
    16:00 +26°C° 0 mm 3 m/s 737 mmHg 16%
    17:00 +25°C° 0 mm 3 m/s 737 mmHg 18%
    18:00 +24°C° 0 mm 3 m/s 737 mmHg 20%
    19:00 +21°C° 0 mm 4 m/s 737 mmHg 22%
    20:00 +21°C° 0 mm 4 m/s 737 mmHg 22%
    21:00 +20°C° 0 mm 4 m/s 737 mmHg 23%
    22:00 +19°C° 0 mm 4 m/s 737 mmHg 24%
    23:00 +19°C° 0 mm 4 m/s 737 mmHg 25%

    19 Outubro, Sábado

    Tempo Temperatura Precipitação Vento Pressão Humidade
    00:00 +19°C° 0 mm 4 m/s 737 mmHg 25%
    01:00 +17°C° 0 mm 5 m/s 737 mmHg 26%
    02:00 +17°C° 0 mm 5 m/s 737 mmHg 33%
    03:00 +16°C° 0 mm 5 m/s 737 mmHg 39%
    04:00 +16°C° 0 mm 5 m/s 737 mmHg 46%
    05:00 +17°C° 0 mm 6 m/s 737 mmHg 44%
    06:00 +18°C° 0 mm 7 m/s 737 mmHg 41%
    07:00 +20°C° 0 mm 8 m/s 738 mmHg 38%
    08:00 +22°C° 0 mm 8 m/s 737 mmHg 35%
    09:00 +24°C° 0 mm 9 m/s 737 mmHg 31%
    10:00 +26°C° 0 mm 10 m/s 737 mmHg 27%
    11:00 +27°C° 0 mm 10 m/s 736 mmHg 27%
    12:00 +27°C° 0 mm 10 m/s 736 mmHg 26%
    13:00 +28°C° 0 mm 11 m/s 736 mmHg 25%
    14:00 +26°C° 0 mm 11 m/s 735 mmHg 31%
    15:00 +24°C° 0 mm 10 m/s 734 mmHg 36%
    16:00 +23°C° 0 mm 10 m/s 734 mmHg 41%
    17:00 +22°C° 0 mm 9 m/s 734 mmHg 44%
    18:00 +21°C° 0 mm 7 m/s 734 mmHg 46%
    19:00 +20°C° 0 mm 5 m/s 734 mmHg 49%
    20:00 +20°C° 0.3 mm 5 m/s 734 mmHg 51%
    21:00 +19°C° 0.3 mm 4 m/s 734 mmHg 53%
    22:00 +19°C° 0.3 mm 4 m/s 734 mmHg 54%
    23:00 +18°C° 0 mm 4 m/s 734 mmHg 55%

    20 Outubro, Domingo

    Tempo Temperatura Precipitação Vento Pressão Humidade
    00:00 +18°C° 0 mm 4 m/s 733 mmHg 56%
    01:00 +18°C° 0 mm 4 m/s 733 mmHg 57%
    02:00 +17°C° 0 mm 4 m/s 733 mmHg 61%
    03:00 +17°C° 0 mm 4 m/s 733 mmHg 64%
    04:00 +17°C° 0 mm 4 m/s 733 mmHg 68%
    05:00 +16°C° 0 mm 5 m/s 733 mmHg 65%
    06:00 +17°C° 0 mm 5 m/s 733 mmHg 61%
    07:00 +19°C° 0 mm 6 m/s 733 mmHg 57%
    08:00 +21°C° 0 mm 5 m/s 733 mmHg 53%
    09:00 +22°C° 0 mm 4 m/s 733 mmHg 48%
    10:00 +24°C° 0 mm 3 m/s 733 mmHg 44%
    11:00 +25°C° 0 mm 3 m/s 733 mmHg 40%
    12:00 +26°C° 0 mm 3 m/s 733 mmHg 35%
    13:00 +27°C° 0 mm 4 m/s 732 mmHg 31%
    14:00 +27°C° 0 mm 4 m/s 732 mmHg 29%
    15:00 +27°C° 0 mm 3 m/s 731 mmHg 27%
    16:00 +27°C° 0 mm 3 m/s 731 mmHg 24%
    17:00 +26°C° 0 mm 5 m/s 732 mmHg 23%
    18:00 +23°C° 0 mm 7 m/s 732 mmHg 23%
    19:00 +22°C° 0 mm 9 m/s 732 mmHg 22%
    20:00 +20°C° 0 mm 8 m/s 733 mmHg 27%
    21:00 +18°C° 0 mm 8 m/s 733 mmHg 32%
    22:00 +16°C° 0 mm 8 m/s 734 mmHg 38%
    23:00 +16°C° 0 mm 8 m/s 733 mmHg 39%
    Mostrar mais